Time,TemperatureF,DewpointF,PressureIn,WindDirection,WindDirectionDegrees,WindSpeedMPH,WindSpeedGustMPH,Humidity,HourlyPrecipIn,Conditions,Clouds,dailyrainin,SolarRadiationWatts/m^2,SoftwareType,DateUTC
2013-02-19 00:21:00,50.0,17.0,-100.00,WSW,238,17.0,35.0,27,0.00,,,0.00,0.000000,,2013-02-19 08:21:00,
2013-02-19 00:31:00,50.0,17.0,-100.00,WSW,238,17.0,35.0,27,0.00,,,0.00,0.000000,,2013-02-19 08:31:00,
2013-02-19 00:42:00,50.0,17.0,-100.00,WSW,238,17.0,35.0,27,0.00,,,0.00,0.000000,,2013-02-19 08:42:00,
2013-02-19 00:51:00,47.0,21.0,-100.00,WSW,245,14.0,27.0,36,0.00,,,0.00,0.000000,,2013-02-19 08:51:00,
2013-02-19 01:11:00,47.0,21.0,-100.00,WSW,245,14.0,27.0,36,0.00,,,0.00,0.000000,,2013-02-19 09:11:00,
2013-02-19 01:21:00,47.0,21.0,-100.00,WSW,245,14.0,27.0,36,0.00,,,0.00,0.000000,,2013-02-19 09:21:00,
2013-02-19 01:31:00,47.0,21.0,-100.00,WSW,245,14.0,27.0,36,0.00,,,0.00,0.000000,,2013-02-19 09:31:00,
2013-02-19 01:41:00,47.0,21.0,-100.00,WSW,245,14.0,27.0,36,0.00,,,0.00,0.000000,,2013-02-19 09:41:00,
2013-02-19 02:11:00,48.0,15.0,-100.00,SW,231,26.0,37.0,26,0.00,,,0.00,0.000000,,2013-02-19 10:11:00,
2013-02-19 02:21:00,48.0,15.0,-100.00,SW,231,26.0,37.0,26,0.00,,,0.00,0.000000,,2013-02-19 10:21:00,
2013-02-19 03:21:00,45.0,8.0,-100.00,SW,233,23.0,36.0,22,0.00,,,0.00,0.000000,,2013-02-19 11:21:00,
2013-02-19 03:51:00,41.0,32.0,-100.00,SW,230,24.0,36.0,70,0.00,,,0.00,0.000000,,2013-02-19 11:51:00,
2013-02-19 04:21:00,41.0,32.0,-100.00,SW,230,24.0,36.0,70,0.00,,,0.00,0.000000,,2013-02-19 12:21:00,
2013-02-19 04:32:00,41.0,32.0,-100.00,SW,230,24.0,36.0,70,0.00,,,0.00,0.000000,,2013-02-19 12:32:00,
2013-02-19 04:42:00,41.0,32.0,-100.00,SW,230,24.0,36.0,70,0.00,,,0.00,0.000000,,2013-02-19 12:42:00,
2013-02-19 04:51:00,38.0,27.0,-100.00,SW,228,26.0,39.0,65,0.00,,,0.00,0.000000,,2013-02-19 12:51:00,
2013-02-19 05:22:00,38.0,27.0,-100.00,SW,228,26.0,39.0,65,0.00,,,0.00,0.000000,,2013-02-19 13:22:00,
2013-02-19 05:32:00,38.0,27.0,-100.00,SW,228,26.0,39.0,65,0.00,,,0.00,0.000000,,2013-02-19 13:32:00,
2013-02-19 05:41:00,38.0,27.0,-100.00,SW,228,26.0,39.0,65,0.00,,,0.00,0.000000,,2013-02-19 13:41:00,
2013-02-19 05:51:00,40.0,33.0,-100.00,SW,231,15.0,39.0,75,0.00,,,0.00,0.000000,,2013-02-19 13:51:00,
2013-02-19 06:11:00,40.0,33.0,-100.00,SW,231,15.0,39.0,75,0.00,,,0.00,0.000000,,2013-02-19 14:11:00,
2013-02-19 06:21:00,40.0,33.0,-100.00,SW,231,15.0,39.0,75,0.00,,,0.00,0.000000,,2013-02-19 14:21:00,
2013-02-19 06:32:00,40.0,33.0,-100.00,SW,231,15.0,39.0,75,0.00,,,0.00,0.000000,,2013-02-19 14:32:00,
2013-02-19 06:41:00,40.0,33.0,-100.00,SW,231,15.0,39.0,75,0.00,,,0.00,0.000000,,2013-02-19 14:41:00,
2013-02-19 06:51:00,40.0,31.0,-100.00,WSW,237,22.0,30.0,69,0.00,,,0.00,3.000000,,2013-02-19 14:51:00,
2013-02-19 07:11:00,40.0,31.0,-100.00,WSW,237,22.0,30.0,69,0.00,,,0.00,3.000000,,2013-02-19 15:11:00,
2013-02-19 07:21:00,40.0,31.0,-100.00,WSW,237,22.0,30.0,69,0.00,,,0.00,3.000000,,2013-02-19 15:21:00,
2013-02-19 07:31:00,40.0,31.0,-100.00,WSW,237,22.0,30.0,69,0.00,,,0.00,3.000000,,2013-02-19 15:31:00,
2013-02-19 07:42:00,40.0,31.0,-100.00,WSW,237,22.0,30.0,69,0.00,,,0.00,3.000000,,2013-02-19 15:42:00,
2013-02-19 07:51:00,40.0,29.0,-100.00,WSW,244,19.0,34.0,64,0.00,,,0.00,71.000000,,2013-02-19 15:51:00,
2013-02-19 08:11:00,40.0,29.0,-100.00,WSW,244,19.0,34.0,64,0.00,,,0.00,71.000000,,2013-02-19 16:11:00,
2013-02-19 08:21:00,40.0,29.0,-100.00,WSW,244,19.0,34.0,64,0.00,,,0.00,71.000000,,2013-02-19 16:21:00,
2013-02-19 08:31:00,40.0,29.0,-100.00,WSW,244,19.0,34.0,64,0.00,,,0.00,71.000000,,2013-02-19 16:31:00,
2013-02-19 08:41:00,40.0,29.0,-100.00,WSW,244,19.0,34.0,64,0.00,,,0.00,71.000000,,2013-02-19 16:41:00,
2013-02-19 08:51:00,43.0,30.0,-100.00,WSW,251,16.0,31.0,60,0.00,,,0.00,332.000000,,2013-02-19 16:51:00,
2013-02-19 09:11:00,43.0,30.0,-100.00,WSW,251,16.0,31.0,60,0.00,,,0.00,332.000000,,2013-02-19 17:11:00,
2013-02-19 09:21:00,43.0,30.0,-100.00,WSW,251,16.0,31.0,60,0.00,,,0.00,332.000000,,2013-02-19 17:21:00,
2013-02-19 09:32:00,43.0,30.0,-100.00,WSW,251,16.0,31.0,60,0.00,,,0.00,332.000000,,2013-02-19 17:32:00,
2013-02-19 09:41:00,43.0,30.0,-100.00,WSW,251,16.0,31.0,60,0.00,,,0.00,332.000000,,2013-02-19 17:41:00,
2013-02-19 09:51:00,44.0,31.0,-100.00,WSW,238,23.0,35.0,59,0.00,,,0.00,461.000000,,2013-02-19 17:51:00,
2013-02-19 10:21:00,44.0,31.0,-100.00,WSW,238,23.0,35.0,59,0.00,,,0.00,461.000000,,2013-02-19 18:21:00,
2013-02-19 10:31:00,44.0,31.0,-100.00,WSW,238,23.0,35.0,59,0.00,,,0.00,461.000000,,2013-02-19 18:31:00,
2013-02-19 10:41:00,44.0,31.0,-100.00,WSW,238,23.0,35.0,59,0.00,,,0.00,461.000000,,2013-02-19 18:41:00,
2013-02-19 10:51:00,45.0,28.0,-100.00,SW,232,22.0,33.0,51,0.00,,,0.00,753.000000,,2013-02-19 18:51:00,
2013-02-19 11:21:00,45.0,28.0,-100.00,SW,232,22.0,33.0,51,0.00,,,0.00,753.000000,,2013-02-19 19:21:00,
2013-02-19 11:31:00,45.0,28.0,-100.00,SW,232,22.0,33.0,51,0.00,,,0.00,753.000000,,2013-02-19 19:31:00,
2013-02-19 11:41:00,45.0,28.0,-100.00,SW,232,22.0,33.0,51,0.00,,,0.00,753.000000,,2013-02-19 19:41:00,
2013-02-19 11:51:00,47.0,27.0,-100.00,WSW,257,18.0,33.0,45,0.00,,,-99.99,763.000000,,2013-02-19 19:51:00,
2013-02-19 12:21:00,47.0,27.0,-100.00,WSW,257,18.0,33.0,45,0.00,,,-99.99,763.000000,,2013-02-19 20:21:00,
2013-02-19 12:32:00,47.0,27.0,-100.00,WSW,257,18.0,33.0,45,0.00,,,-99.99,763.000000,,2013-02-19 20:32:00,
2013-02-19 12:41:00,47.0,27.0,-100.00,WSW,257,18.0,33.0,45,0.00,,,-99.99,763.000000,,2013-02-19 20:41:00,
2013-02-19 12:51:00,47.0,25.0,-100.00,West,263,21.0,35.0,42,0.00,,,0.00,710.000000,,2013-02-19 20:51:00,
2013-02-19 13:11:00,47.0,25.0,-100.00,West,263,21.0,35.0,42,0.00,,,0.00,710.000000,,2013-02-19 21:11:00,
2013-02-19 13:21:00,47.0,25.0,-100.00,West,263,21.0,35.0,42,0.00,,,0.00,710.000000,,2013-02-19 21:21:00,
2013-02-19 13:31:00,47.0,25.0,-100.00,West,263,21.0,35.0,42,0.00,,,0.00,710.000000,,2013-02-19 21:31:00,
2013-02-19 13:42:00,47.0,25.0,-100.00,West,263,21.0,35.0,42,0.00,,,0.00,710.000000,,2013-02-19 21:42:00,
2013-02-19 13:51:00,46.0,24.0,-100.00,West,259,19.0,36.0,41,0.00,,,0.00,783.000000,,2013-02-19 21:51:00,
2013-02-19 14:21:00,46.0,24.0,-100.00,West,259,19.0,36.0,41,0.00,,,0.00,783.000000,,2013-02-19 22:21:00,
2013-02-19 14:32:00,46.0,24.0,-100.00,West,259,19.0,36.0,41,0.00,,,0.00,783.000000,,2013-02-19 22:32:00,
2013-02-19 14:41:00,46.0,24.0,-100.00,West,259,19.0,36.0,41,0.00,,,0.00,783.000000,,2013-02-19 22:41:00,
2013-02-19 14:51:00,41.0,24.0,-100.00,West,269,21.0,38.0,51,0.00,,,0.00,475.000000,,2013-02-19 22:51:00,
2013-02-19 15:11:00,41.0,24.0,-100.00,West,269,21.0,38.0,51,0.00,,,0.00,475.000000,,2013-02-19 23:11:00,
2013-02-19 15:21:00,41.0,24.0,-100.00,West,269,21.0,38.0,51,0.00,,,0.00,475.000000,,2013-02-19 23:21:00,
2013-02-19 15:31:00,41.0,24.0,-100.00,West,269,21.0,38.0,51,0.00,,,0.00,475.000000,,2013-02-19 23:31:00,
2013-02-19 15:41:00,41.0,24.0,-100.00,West,269,21.0,38.0,51,0.00,,,0.00,475.000000,,2013-02-19 23:41:00,
2013-02-19 15:51:00,43.0,22.0,-100.00,West,267,21.0,36.0,43,0.00,,,0.00,205.000000,,2013-02-19 23:51:00,
2013-02-19 16:11:00,43.0,22.0,-100.00,West,267,21.0,36.0,43,0.00,,,0.00,205.000000,,2013-02-20 00:11:00,
2013-02-19 16:21:00,43.0,22.0,-100.00,West,267,21.0,36.0,43,0.00,,,0.00,205.000000,,2013-02-20 00:21:00,
2013-02-19 16:31:00,43.0,22.0,-100.00,West,267,21.0,36.0,43,0.00,,,0.00,205.000000,,2013-02-20 00:31:00,
2013-02-19 16:41:00,43.0,22.0,-100.00,West,267,21.0,36.0,43,0.00,,,0.00,205.000000,,2013-02-20 00:41:00,
2013-02-19 16:51:00,41.0,17.0,-100.00,WSW,240,11.0,37.0,37,0.00,,,0.00,181.000000,,2013-02-20 00:51:00,
2013-02-19 17:11:00,41.0,17.0,-100.00,WSW,240,11.0,37.0,37,0.00,,,0.00,181.000000,,2013-02-20 01:11:00,
2013-02-19 17:21:00,41.0,17.0,-100.00,WSW,240,11.0,37.0,37,0.00,,,0.00,181.000000,,2013-02-20 01:21:00,
2013-02-19 17:31:00,41.0,17.0,-100.00,WSW,240,11.0,37.0,37,0.00,,,0.00,181.000000,,2013-02-20 01:31:00,
2013-02-19 17:41:00,41.0,17.0,-100.00,WSW,240,11.0,37.0,37,0.00,,,0.00,181.000000,,2013-02-20 01:41:00,
2013-02-19 17:51:00,39.0,25.0,-100.00,SW,231,14.0,31.0,58,0.00,,,0.00,22.000000,,2013-02-20 01:51:00,
2013-02-19 18:21:00,39.0,25.0,-100.00,SW,231,14.0,31.0,58,0.00,,,0.00,22.000000,,2013-02-20 02:21:00,
2013-02-19 18:31:00,39.0,25.0,-100.00,SW,231,14.0,31.0,58,0.00,,,0.00,22.000000,,2013-02-20 02:31:00,
2013-02-19 18:41:00,39.0,25.0,-100.00,SW,231,14.0,31.0,58,0.00,,,0.00,22.000000,,2013-02-20 02:41:00,
2013-02-19 18:51:00,39.0,33.0,-100.00,SW,218,12.0,39.0,80,0.00,,,0.00,0.000000,,2013-02-20 02:51:00,
2013-02-19 19:21:00,39.0,33.0,-100.00,SW,218,12.0,39.0,80,0.00,,,0.00,0.000000,,2013-02-20 03:21:00,
2013-02-19 19:32:00,39.0,33.0,-100.00,SW,218,12.0,39.0,80,0.00,,,0.00,0.000000,,2013-02-20 03:32:00,
2013-02-19 19:41:00,39.0,33.0,-100.00,SW,218,12.0,39.0,80,0.00,,,0.00,0.000000,,2013-02-20 03:41:00,
2013-02-19 19:51:00,36.0,30.0,-100.00,SW,215,14.0,49.0,79,0.00,,,0.00,0.000000,,2013-02-20 03:51:00,
2013-02-19 20:11:00,36.0,30.0,-100.00,SW,215,14.0,49.0,79,0.00,,,0.00,0.000000,,2013-02-20 04:11:00,
2013-02-19 20:21:00,36.0,30.0,-100.00,SW,215,14.0,49.0,79,0.00,,,0.00,0.000000,,2013-02-20 04:21:00,
2013-02-19 20:31:00,36.0,30.0,-100.00,SW,215,14.0,49.0,79,0.00,,,0.00,0.000000,,2013-02-20 04:31:00,
2013-02-19 20:41:00,36.0,30.0,-100.00,SW,215,14.0,49.0,79,0.00,,,0.00,0.000000,,2013-02-20 04:41:00,
2013-02-19 20:51:00,34.0,31.0,-100.00,SW,222,14.0,41.0,89,0.00,,,0.00,0.000000,,2013-02-20 04:51:00,
2013-02-19 21:12:00,34.0,31.0,-100.00,SW,222,14.0,41.0,89,0.00,,,0.00,0.000000,,2013-02-20 05:12:00,
2013-02-19 21:22:00,34.0,31.0,-100.00,SW,222,14.0,41.0,89,0.00,,,0.00,0.000000,,2013-02-20 05:22:00,
2013-02-19 21:32:00,34.0,31.0,-100.00,SW,222,14.0,41.0,89,0.00,,,0.00,0.000000,,2013-02-20 05:32:00,
2013-02-19 21:42:00,34.0,31.0,-100.00,SW,222,14.0,41.0,89,0.00,,,0.00,0.000000,,2013-02-20 05:42:00,
2013-02-19 21:51:00,32.0,32.0,-100.00,SW,222,17.0,34.0,98,0.01,,,0.01,0.000000,,2013-02-20 05:51:00,
2013-02-19 22:11:00,32.0,32.0,-100.00,SW,222,17.0,34.0,98,0.01,,,0.01,0.000000,,2013-02-20 06:11:00,
2013-02-19 22:21:00,32.0,32.0,-100.00,SW,222,17.0,34.0,98,0.01,,,0.01,0.000000,,2013-02-20 06:21:00,
2013-02-19 22:31:00,32.0,32.0,-100.00,SW,222,17.0,34.0,98,0.01,,,0.01,0.000000,,2013-02-20 06:31:00,
2013-02-19 22:42:00,32.0,32.0,-100.00,SW,222,17.0,34.0,98,0.01,,,0.01,0.000000,,2013-02-20 06:42:00,
2013-02-19 22:51:00,34.0,30.0,-100.00,West,276,15.0,29.0,86,0.00,,,0.01,0.000000,,2013-02-20 06:51:00,
2013-02-19 23:11:00,34.0,30.0,-100.00,West,276,15.0,29.0,86,0.00,,,0.01,0.000000,,2013-02-20 07:11:00,
2013-02-19 23:21:00,34.0,30.0,-100.00,West,276,15.0,29.0,86,0.00,,,0.01,0.000000,,2013-02-20 07:21:00,
2013-02-19 23:31:00,34.0,30.0,-100.00,West,276,15.0,29.0,86,0.00,,,0.01,0.000000,,2013-02-20 07:31:00,
2013-02-19 23:41:00,34.0,30.0,-100.00,West,276,15.0,29.0,86,0.00,,,0.01,0.000000,,2013-02-20 07:41:00,
2013-02-19 23:51:00,32.0,24.0,-100.00,WSW,245,12.0,26.0,73,0.00,,,0.01,0.000000,,2013-02-20 07:51:00,